Year,Month,Day,Hour,Minute,Value (Times are PST for insolation in W/m^2)
2010,03,30,00,00,0.00
2010,03,30,00,01,0.00
2010,03,30,00,02,0.00
2010,03,30,00,03,0.00
2010,03,30,00,04,0.00
2010,03,30,00,05,0.00
2010,03,30,00,06,0.00
2010,03,30,00,07,0.00
2010,03,30,00,08,0.00
2010,03,30,00,09,0.00
2010,03,30,00,10,0.00
2010,03,30,00,11,0.00
2010,03,30,00,12,0.00
2010,03,30,00,13,0.00
2010,03,30,00,14,0.00
2010,03,30,00,15,0.00
2010,03,30,00,16,0.00
2010,03,30,00,17,0.00
2010,03,30,00,18,0.00
2010,03,30,00,19,0.00
2010,03,30,00,20,0.00
2010,03,30,00,21,0.00
2010,03,30,00,22,0.00
2010,03,30,00,23,0.00
2010,03,30,00,24,0.00
2010,03,30,00,25,0.00
2010,03,30,00,26,0.00
2010,03,30,00,27,0.00
2010,03,30,00,28,0.00
2010,03,30,00,29,0.00
2010,03,30,00,30,0.00
2010,03,30,00,31,0.00
2010,03,30,00,32,0.00
2010,03,30,00,33,0.00
2010,03,30,00,34,0.00
2010,03,30,00,35,0.00
2010,03,30,00,36,0.00
2010,03,30,00,37,0.00
2010,03,30,00,38,0.00
2010,03,30,00,39,0.00
2010,03,30,00,40,0.00
2010,03,30,00,41,0.00
2010,03,30,00,42,0.00
2010,03,30,00,43,0.00
2010,03,30,00,44,0.00
2010,03,30,00,45,0.00
2010,03,30,00,46,0.00
2010,03,30,00,47,0.00
2010,03,30,00,48,0.00
2010,03,30,00,49,0.00
2010,03,30,00,50,0.00
2010,03,30,00,51,0.00
2010,03,30,00,52,0.00
2010,03,30,00,53,0.00
2010,03,30,00,54,0.00
2010,03,30,00,55,0.00
2010,03,30,00,56,0.00
2010,03,30,00,57,0.00
2010,03,30,00,58,0.00
2010,03,30,00,59,0.00
2010,03,30,01,00,0.00
2010,03,30,01,01,0.00
2010,03,30,01,02,0.00
2010,03,30,01,03,0.00
2010,03,30,01,04,0.00
2010,03,30,01,05,0.00
2010,03,30,01,06,0.00
2010,03,30,01,07,0.00
2010,03,30,01,08,0.00
2010,03,30,01,09,0.00
2010,03,30,01,10,0.00
2010,03,30,01,11,0.00
2010,03,30,01,12,0.00
2010,03,30,01,13,0.00
2010,03,30,01,14,0.00
2010,03,30,01,15,0.00
2010,03,30,01,16,0.00
2010,03,30,01,17,0.00
2010,03,30,01,18,0.00
2010,03,30,01,19,0.00
2010,03,30,01,20,0.00
2010,03,30,01,21,0.00
2010,03,30,01,22,0.00
2010,03,30,01,23,0.00
2010,03,30,01,24,0.00
2010,03,30,01,25,0.00
2010,03,30,01,26,0.00
2010,03,30,01,27,0.00
2010,03,30,01,28,0.00
2010,03,30,01,29,0.00
2010,03,30,01,30,0.00
2010,03,30,01,31,0.00
2010,03,30,01,32,0.00
2010,03,30,01,33,0.00
2010,03,30,01,34,0.00
2010,03,30,01,35,0.00
2010,03,30,01,36,0.00
2010,03,30,01,37,0.00
2010,03,30,01,38,0.00
2010,03,30,01,39,0.00
2010,03,30,01,40,0.00
2010,03,30,01,41,0.00
2010,03,30,01,42,0.00
2010,03,30,01,43,0.00
2010,03,30,01,44,0.00
2010,03,30,01,45,0.00
2010,03,30,01,46,0.00
2010,03,30,01,47,0.00
2010,03,30,01,48,0.00
2010,03,30,01,49,0.00
2010,03,30,01,50,0.00
2010,03,30,01,51,0.00
2010,03,30,01,52,0.00
2010,03,30,01,53,0.00
2010,03,30,01,54,0.00
2010,03,30,01,55,0.00
2010,03,30,01,56,0.00
2010,03,30,01,57,0.00
2010,03,30,01,58,0.00
2010,03,30,01,59,0.00
2010,03,30,02,00,0.00
2010,03,30,02,01,0.00
2010,03,30,02,02,0.00
2010,03,30,02,03,0.00
2010,03,30,02,04,0.00
2010,03,30,02,05,0.00
2010,03,30,02,06,0.00
2010,03,30,02,07,0.00
2010,03,30,02,08,0.00
2010,03,30,02,09,0.00
2010,03,30,02,10,0.00
2010,03,30,02,11,0.00
2010,03,30,02,12,0.00
2010,03,30,02,13,0.00
2010,03,30,02,14,0.00
2010,03,30,02,15,0.00
2010,03,30,02,16,0.00
2010,03,30,02,17,0.00
2010,03,30,02,18,0.00
2010,03,30,02,19,0.00
2010,03,30,02,20,0.00
2010,03,30,02,21,0.00
2010,03,30,02,22,0.00
2010,03,30,02,23,0.00
2010,03,30,02,24,0.00
2010,03,30,02,25,0.00
2010,03,30,02,26,0.00
2010,03,30,02,27,0.00
2010,03,30,02,28,0.00
2010,03,30,02,29,0.00
2010,03,30,02,30,0.00
2010,03,30,02,31,0.00
2010,03,30,02,32,0.00
2010,03,30,02,33,0.00
2010,03,30,02,34,0.00
2010,03,30,02,35,0.00
2010,03,30,02,36,0.00
2010,03,30,02,37,0.00
2010,03,30,02,38,0.00
2010,03,30,02,39,0.00
2010,03,30,02,40,0.00
2010,03,30,02,41,0.00
2010,03,30,02,42,0.00
2010,03,30,02,43,0.00
2010,03,30,02,44,0.00
2010,03,30,02,45,0.00
2010,03,30,02,46,0.00
2010,03,30,02,47,0.00
2010,03,30,02,48,0.00
2010,03,30,02,49,0.00
2010,03,30,02,50,0.00
2010,03,30,02,51,0.00
2010,03,30,02,52,0.00
2010,03,30,02,53,0.00
2010,03,30,02,54,0.00
2010,03,30,02,55,0.00
2010,03,30,02,56,0.00
2010,03,30,02,57,0.00
2010,03,30,02,58,0.00
2010,03,30,02,59,0.00
2010,03,30,03,00,0.00
2010,03,30,03,01,0.00
2010,03,30,03,02,0.00
2010,03,30,03,03,0.00
2010,03,30,03,04,0.00
2010,03,30,03,05,0.00
2010,03,30,03,06,0.00
2010,03,30,03,07,0.00
2010,03,30,03,08,0.00
2010,03,30,03,09,0.00
2010,03,30,03,10,0.00
2010,03,30,03,11,0.00
2010,03,30,03,12,0.00
2010,03,30,03,13,0.00
2010,03,30,03,14,0.00
2010,03,30,03,15,0.00
2010,03,30,03,16,0.00
2010,03,30,03,17,0.00
2010,03,30,03,18,0.00
2010,03,30,03,19,0.00
2010,03,30,03,20,0.00
2010,03,30,03,21,0.00
2010,03,30,03,22,0.00
2010,03,30,03,23,0.00
2010,03,30,03,24,0.00
2010,03,30,03,25,0.00
2010,03,30,03,26,0.00
2010,03,30,03,27,0.00
2010,03,30,03,28,0.00
2010,03,30,03,29,0.00
2010,03,30,03,30,0.00
2010,03,30,03,31,0.00
2010,03,30,03,32,0.00
2010,03,30,03,33,0.00
2010,03,30,03,34,0.00
2010,03,30,03,35,0.00
2010,03,30,03,36,0.00
2010,03,30,03,37,0.00
2010,03,30,03,38,0.00
2010,03,30,03,39,0.00
2010,03,30,03,40,0.00
2010,03,30,03,41,0.00
2010,03,30,03,42,0.00
2010,03,30,03,43,0.00
2010,03,30,03,44,0.00
2010,03,30,03,45,0.00
2010,03,30,03,46,0.00
2010,03,30,03,47,0.00
2010,03,30,03,48,0.00
2010,03,30,03,49,0.00
2010,03,30,03,50,0.00
2010,03,30,03,51,0.00
2010,03,30,03,52,0.00
2010,03,30,03,53,0.00
2010,03,30,03,54,0.00
2010,03,30,03,55,0.00
2010,03,30,03,56,0.00
2010,03,30,03,57,0.00
2010,03,30,03,58,0.00
2010,03,30,03,59,0.00
2010,03,30,04,00,0.00
2010,03,30,04,01,0.00
2010,03,30,04,02,0.00
2010,03,30,04,03,0.00
2010,03,30,04,04,0.00
2010,03,30,04,05,0.00
2010,03,30,04,06,0.00
2010,03,30,04,07,0.00
2010,03,30,04,08,0.00
2010,03,30,04,09,0.00
2010,03,30,04,10,0.00
2010,03,30,04,11,0.00
2010,03,30,04,12,0.00
2010,03,30,04,13,0.00
2010,03,30,04,14,0.00
2010,03,30,04,15,0.00
2010,03,30,04,16,0.00
2010,03,30,04,17,0.00
2010,03,30,04,18,0.00
2010,03,30,04,19,0.00
2010,03,30,04,20,0.00
2010,03,30,04,21,0.00
2010,03,30,04,22,0.00
2010,03,30,04,23,0.00
2010,03,30,04,24,0.00
2010,03,30,04,25,0.00
2010,03,30,04,26,0.00
2010,03,30,04,27,0.00
2010,03,30,04,28,0.00
2010,03,30,04,29,0.00
2010,03,30,04,30,0.00
2010,03,30,04,31,0.00
2010,03,30,04,32,0.00
2010,03,30,04,33,0.00
2010,03,30,04,34,0.00
2010,03,30,04,35,0.00
2010,03,30,04,36,0.00
2010,03,30,04,37,0.00
2010,03,30,04,38,0.00
2010,03,30,04,39,0.00
2010,03,30,04,40,0.00
2010,03,30,04,41,0.00
2010,03,30,04,42,0.00
2010,03,30,04,43,0.00
2010,03,30,04,44,0.00
2010,03,30,04,45,0.00
2010,03,30,04,46,0.00
2010,03,30,04,47,0.00
2010,03,30,04,48,0.00
2010,03,30,04,49,0.00
2010,03,30,04,50,0.00
2010,03,30,04,51,0.00
2010,03,30,04,52,0.00
2010,03,30,04,53,0.00
2010,03,30,04,54,0.00
2010,03,30,04,55,0.00
2010,03,30,04,56,0.00
2010,03,30,04,57,0.00
2010,03,30,04,58,0.00
2010,03,30,04,59,0.00
2010,03,30,05,00,0.00
2010,03,30,05,01,0.00
2010,03,30,05,02,0.00
2010,03,30,05,03,0.00
2010,03,30,05,04,0.00
2010,03,30,05,05,0.00
2010,03,30,05,06,0.00
2010,03,30,05,07,0.00
2010,03,30,05,08,0.00
2010,03,30,05,09,0.00
2010,03,30,05,10,0.00
2010,03,30,05,11,0.00
2010,03,30,05,12,0.00
2010,03,30,05,13,0.00
2010,03,30,05,14,0.00
2010,03,30,05,15,0.00
2010,03,30,05,16,0.00
2010,03,30,05,17,0.00
2010,03,30,05,18,0.00
2010,03,30,05,19,0.00
2010,03,30,05,20,0.00
2010,03,30,05,21,0.00
2010,03,30,05,22,0.00
2010,03,30,05,23,0.00
2010,03,30,05,24,0.00
2010,03,30,05,25,0.00
2010,03,30,05,26,0.00
2010,03,30,05,27,0.00
2010,03,30,05,28,0.00
2010,03,30,05,29,0.00
2010,03,30,05,30,0.00
2010,03,30,05,31,0.00
2010,03,30,05,32,0.00
2010,03,30,05,33,0.00
2010,03,30,05,34,0.00
2010,03,30,05,35,0.00
2010,03,30,05,36,0.00
2010,03,30,05,37,0.00
2010,03,30,05,38,0.00
2010,03,30,05,39,0.00
2010,03,30,05,40,0.00
2010,03,30,05,41,0.00
2010,03,30,05,42,0.00
2010,03,30,05,43,0.00
2010,03,30,05,44,0.00
2010,03,30,05,45,0.00
2010,03,30,05,46,0.00
2010,03,30,05,47,0.00
2010,03,30,05,48,0.00
2010,03,30,05,49,0.00
2010,03,30,05,50,0.00
2010,03,30,05,51,0.00
2010,03,30,05,52,0.00
2010,03,30,05,53,0.00
2010,03,30,05,54,0.00
2010,03,30,05,55,0.00
2010,03,30,05,56,0.00
2010,03,30,05,57,0.00
2010,03,30,05,58,0.00
2010,03,30,05,59,0.00
2010,03,30,06,00,0.00
2010,03,30,06,01,0.00
2010,03,30,06,02,0.00
2010,03,30,06,03,0.00
2010,03,30,06,04,0.00
2010,03,30,06,05,0.00
2010,03,30,06,06,0.00
2010,03,30,06,07,0.00
2010,03,30,06,08,0.00
2010,03,30,06,09,0.00
2010,03,30,06,10,0.00
2010,03,30,06,11,0.00
2010,03,30,06,12,0.00
2010,03,30,06,13,0.00
2010,03,30,06,14,0.00
2010,03,30,06,15,0.00
2010,03,30,06,16,0.00
2010,03,30,06,17,0.00
2010,03,30,06,18,0.00
2010,03,30,06,19,0.00
2010,03,30,06,20,0.00
2010,03,30,06,21,0.00
2010,03,30,06,22,0.00
2010,03,30,06,23,0.00
2010,03,30,06,24,0.00
2010,03,30,06,25,0.00
2010,03,30,06,26,0.00
2010,03,30,06,27,0.00
2010,03,30,06,28,0.00
2010,03,30,06,29,0.00
2010,03,30,06,30,0.00
2010,03,30,06,31,0.00
2010,03,30,06,32,0.00
2010,03,30,06,33,0.00
2010,03,30,06,34,0.00
2010,03,30,06,35,0.00
2010,03,30,06,36,0.00
2010,03,30,06,37,0.00
2010,03,30,06,38,0.00
2010,03,30,06,39,0.00
2010,03,30,06,40,0.00
2010,03,30,06,41,0.00
2010,03,30,06,42,0.00
2010,03,30,06,43,0.00
2010,03,30,06,44,0.00
2010,03,30,06,45,0.00
2010,03,30,06,46,0.00
2010,03,30,06,47,0.00
2010,03,30,06,48,0.00
2010,03,30,06,49,0.00
2010,03,30,06,50,0.00
2010,03,30,06,51,0.00
2010,03,30,06,52,0.00
2010,03,30,06,53,0.00
2010,03,30,06,54,0.00
2010,03,30,06,55,0.00
2010,03,30,06,56,0.00
2010,03,30,06,57,0.00
2010,03,30,06,58,0.00
2010,03,30,06,59,0.00
2010,03,30,07,00,0.00
2010,03,30,07,01,0.00
2010,03,30,07,02,0.00
2010,03,30,07,03,2.20
2010,03,30,07,04,5.00
2010,03,30,07,05,5.00
2010,03,30,07,06,5.00
2010,03,30,07,07,7.00
2010,03,30,07,08,7.00
2010,03,30,07,09,7.00
2010,03,30,07,10,7.00
2010,03,30,07,11,8.20
2010,03,30,07,12,9.00
2010,03,30,07,13,9.00
2010,03,30,07,14,9.20
2010,03,30,07,15,11.00
2010,03,30,07,16,11.00
2010,03,30,07,17,11.00
2010,03,30,07,18,11.60
2010,03,30,07,19,12.00
2010,03,30,07,20,12.00
2010,03,30,07,21,12.20
2010,03,30,07,22,14.00
2010,03,30,07,23,14.00
2010,03,30,07,24,14.00
2010,03,30,07,25,15.30
2010,03,30,07,26,16.00
2010,03,30,07,27,16.00
2010,03,30,07,28,18.00
2010,03,30,07,29,18.00
2010,03,30,07,30,18.30
2010,03,30,07,31,19.00
2010,03,30,07,32,19.00
2010,03,30,07,33,20.50
2010,03,30,07,34,21.00
2010,03,30,07,35,23.00
2010,03,30,07,36,23.40
2010,03,30,07,37,25.30
2010,03,30,07,38,26.90
2010,03,30,07,39,29.10
2010,03,30,07,40,32.20
2010,03,30,07,41,34.60
2010,03,30,07,42,37.10
2010,03,30,07,43,39.20
2010,03,30,07,44,40.70
2010,03,30,07,45,42.90
2010,03,30,07,46,45.30
2010,03,30,07,47,48.10
2010,03,30,07,48,49.00
2010,03,30,07,49,49.00
2010,03,30,07,50,49.00
2010,03,30,07,51,49.00
2010,03,30,07,52,49.00
2010,03,30,07,53,60.00
2010,03,30,07,54,75.50
2010,03,30,07,55,80.20
2010,03,30,07,56,84.10
2010,03,30,07,57,87.00
2010,03,30,07,58,90.40
2010,03,30,07,59,91.90
2010,03,30,08,00,93.00
2010,03,30,08,01,91.50
2010,03,30,08,02,91.00
2010,03,30,08,03,91.20
2010,03,30,08,04,93.00
2010,03,30,08,05,93.70
2010,03,30,08,06,95.00
2010,03,30,08,07,93.90
2010,03,30,08,08,94.50
2010,03,30,08,09,93.30
2010,03,30,08,10,93.20
2010,03,30,08,11,95.50
2010,03,30,08,12,97.00
2010,03,30,08,13,97.50
2010,03,30,08,14,99.30
2010,03,30,08,15,102.90
2010,03,30,08,16,106.60
2010,03,30,08,17,109.40
2010,03,30,08,18,113.20
2010,03,30,08,19,115.30
2010,03,30,08,20,118.00
2010,03,30,08,21,119.30
2010,03,30,08,22,122.10
2010,03,30,08,23,126.60
2010,03,30,08,24,128.10
2010,03,30,08,25,130.40
2010,03,30,08,26,132.80
2010,03,30,08,27,134.00
2010,03,30,08,28,132.80
2010,03,30,08,29,132.00
2010,03,30,08,30,132.00
2010,03,30,08,31,133.70
2010,03,30,08,32,131.20
2010,03,30,08,33,126.00
2010,03,30,08,34,120.60
2010,03,30,08,35,113.60
2010,03,30,08,36,106.80
2010,03,30,08,37,99.10
2010,03,30,08,38,91.10
2010,03,30,08,39,87.00
2010,03,30,08,40,82.20
2010,03,30,08,41,79.00
2010,03,30,08,42,76.40
2010,03,30,08,43,76.00
2010,03,30,08,44,74.30
2010,03,30,08,45,73.80
2010,03,30,08,46,72.40
2010,03,30,08,47,74.00
2010,03,30,08,48,74.00
2010,03,30,08,49,75.30
2010,03,30,08,50,76.70
2010,03,30,08,51,78.70
2010,03,30,08,52,79.00
2010,03,30,08,53,80.10
2010,03,30,08,54,86.70
2010,03,30,08,55,84.70
2010,03,30,08,56,94.30
2010,03,30,08,57,114.60
2010,03,30,08,58,96.90
2010,03,30,08,59,90.50
2010,03,30,09,00,86.50
2010,03,30,09,01,92.90
2010,03,30,09,02,114.10
2010,03,30,09,03,133.80
2010,03,30,09,04,120.80
2010,03,30,09,05,117.00
2010,03,30,09,06,116.90
2010,03,30,09,07,137.60
2010,03,30,09,08,116.30
2010,03,30,09,09,106.00
2010,03,30,09,10,99.40
2010,03,30,09,11,111.30
2010,03,30,09,12,162.40
2010,03,30,09,13,206.30
2010,03,30,09,14,170.20
2010,03,30,09,15,205.30
2010,03,30,09,16,260.40
2010,03,30,09,17,303.00
2010,03,30,09,18,285.60
2010,03,30,09,19,303.60
2010,03,30,09,20,276.40
2010,03,30,09,21,319.50
2010,03,30,09,22,334.80
2010,03,30,09,23,335.00
2010,03,30,09,24,355.00
2010,03,30,09,25,369.00
2010,03,30,09,26,369.00
2010,03,30,09,27,352.00
2010,03,30,09,28,187.60
2010,03,30,09,29,178.00
2010,03,30,09,30,276.10
2010,03,30,09,31,411.60
2010,03,30,09,32,408.00
2010,03,30,09,33,421.50
2010,03,30,09,34,424.30
2010,03,30,09,35,418.00
2010,03,30,09,36,333.30
2010,03,30,09,37,176.00
2010,03,30,09,38,359.70
2010,03,30,09,39,524.70
2010,03,30,09,40,541.20
2010,03,30,09,41,526.10
2010,03,30,09,42,521.00
2010,03,30,09,43,533.60
2010,03,30,09,44,543.10
2010,03,30,09,45,534.60
2010,03,30,09,46,552.30
2010,03,30,09,47,559.00
2010,03,30,09,48,559.50
2010,03,30,09,49,564.00
2010,03,30,09,50,488.90
2010,03,30,09,51,348.00
2010,03,30,09,52,348.00
2010,03,30,09,53,426.80
2010,03,30,09,54,407.10
2010,03,30,09,55,383.60
2010,03,30,09,56,354.20
2010,03,30,09,57,262.00
2010,03,30,09,58,208.50
2010,03,30,09,59,143.00
2010,03,30,10,00,160.40
2010,03,30,10,01,150.20
2010,03,30,10,02,133.30
2010,03,30,10,03,157.00
2010,03,30,10,04,198.30
2010,03,30,10,05,153.00
2010,03,30,10,06,153.00
2010,03,30,10,07,181.00
2010,03,30,10,08,204.30
2010,03,30,10,09,174.00
2010,03,30,10,10,181.50
2010,03,30,10,11,199.00
2010,03,30,10,12,324.20
2010,03,30,10,13,477.00
2010,03,30,10,14,485.50
2010,03,30,10,15,485.00
2010,03,30,10,16,485.00
2010,03,30,10,17,485.00
2010,03,30,10,18,485.00
2010,03,30,10,19,485.00
2010,03,30,10,20,485.00
2010,03,30,10,21,485.00
2010,03,30,10,22,332.60
2010,03,30,10,23,374.30
2010,03,30,10,24,378.00
2010,03,30,10,25,414.40
2010,03,30,10,26,518.70
2010,03,30,10,27,529.60
2010,03,30,10,28,522.80
2010,03,30,10,29,510.90
2010,03,30,10,30,501.20
2010,03,30,10,31,508.00
2010,03,30,10,32,524.70
2010,03,30,10,33,532.30
2010,03,30,10,34,540.60
2010,03,30,10,35,535.80
2010,03,30,10,36,535.60
2010,03,30,10,37,521.20
2010,03,30,10,38,541.50
2010,03,30,10,39,573.80
2010,03,30,10,40,592.00
2010,03,30,10,41,566.70
2010,03,30,10,42,579.30
2010,03,30,10,43,591.00
2010,03,30,10,44,598.20
2010,03,30,10,45,576.00
2010,03,30,10,46,571.50
2010,03,30,10,47,581.00
2010,03,30,10,48,581.60
2010,03,30,10,49,594.70
2010,03,30,10,50,617.00
2010,03,30,10,51,631.00
2010,03,30,10,52,629.30
2010,03,30,10,53,596.60
2010,03,30,10,54,580.80
2010,03,30,10,55,595.80
2010,03,30,10,56,573.60
2010,03,30,10,57,583.40
2010,03,30,10,58,626.00
2010,03,30,10,59,630.90
2010,03,30,11,00,637.20
2010,03,30,11,01,635.00
2010,03,30,11,02,643.00
2010,03,30,11,03,643.60
2010,03,30,11,04,640.60
2010,03,30,11,05,670.30
2010,03,30,11,06,676.50
2010,03,30,11,07,689.60
2010,03,30,11,08,676.90
2010,03,30,11,09,668.00
2010,03,30,11,10,685.80
2010,03,30,11,11,694.70
2010,03,30,11,12,727.10
2010,03,30,11,13,758.70
2010,03,30,11,14,780.70
2010,03,30,11,15,778.50
2010,03,30,11,16,787.60
2010,03,30,11,17,725.30
2010,03,30,11,18,648.20
2010,03,30,11,19,616.80
2010,03,30,11,20,434.00
2010,03,30,11,21,406.40
2010,03,30,11,22,355.00
2010,03,30,11,23,480.50
2010,03,30,11,24,548.00
2010,03,30,11,25,548.00
2010,03,30,11,26,561.80
2010,03,30,11,27,680.80
2010,03,30,11,28,630.70
2010,03,30,11,29,622.90
2010,03,30,11,30,620.90
2010,03,30,11,31,623.90
2010,03,30,11,32,631.70
2010,03,30,11,33,624.90
2010,03,30,11,34,634.20
2010,03,30,11,35,642.90
2010,03,30,11,36,649.80
2010,03,30,11,37,678.80
2010,03,30,11,38,705.30
2010,03,30,11,39,715.30
2010,03,30,11,40,730.30
2010,03,30,11,41,731.00
2010,03,30,11,42,731.00
2010,03,30,11,43,731.00
2010,03,30,11,44,453.90
2010,03,30,11,45,246.00
2010,03,30,11,46,373.90
2010,03,30,11,47,379.90
2010,03,30,11,48,164.30
2010,03,30,11,49,172.30
2010,03,30,11,50,178.00
2010,03,30,11,51,518.20
2010,03,30,11,52,745.00
2010,03,30,11,53,745.00
2010,03,30,11,54,741.40
2010,03,30,11,55,701.20
2010,03,30,11,56,684.00
2010,03,30,11,57,684.00
2010,03,30,11,58,694.90
2010,03,30,11,59,708.20
2010,03,30,12,00,707.60
2010,03,30,12,01,720.50
2010,03,30,12,02,693.00
2010,03,30,12,03,626.00
2010,03,30,12,04,626.00
2010,03,30,12,05,725.80
2010,03,30,12,06,784.00
2010,03,30,12,07,784.00
2010,03,30,12,08,802.00
2010,03,30,12,09,802.00
2010,03,30,12,10,785.00
2010,03,30,12,11,720.20
2010,03,30,12,12,639.70
2010,03,30,12,13,605.00
2010,03,30,12,14,605.00
2010,03,30,12,15,747.00
2010,03,30,12,16,741.00
2010,03,30,12,17,750.30
2010,03,30,12,18,819.70
2010,03,30,12,19,832.60
2010,03,30,12,20,828.00
2010,03,30,12,21,750.90
2010,03,30,12,22,744.80
2010,03,30,12,23,796.70
2010,03,30,12,24,787.70
2010,03,30,12,25,817.90
2010,03,30,12,26,824.40
2010,03,30,12,27,850.90
2010,03,30,12,28,860.50
2010,03,30,12,29,867.70
2010,03,30,12,30,868.00
2010,03,30,12,31,843.00
2010,03,30,12,32,780.50
2010,03,30,12,33,753.10
2010,03,30,12,34,723.80
2010,03,30,12,35,726.30
2010,03,30,12,36,728.00
2010,03,30,12,37,728.00
2010,03,30,12,38,728.00
2010,03,30,12,39,728.00
2010,03,30,12,40,820.40
2010,03,30,12,41,890.10
2010,03,30,12,42,940.00
2010,03,30,12,43,958.00
2010,03,30,12,44,937.80
2010,03,30,12,45,919.00
2010,03,30,12,46,919.00
2010,03,30,12,47,919.00
2010,03,30,12,48,919.00
2010,03,30,12,49,919.00
2010,03,30,12,50,771.70
2010,03,30,12,51,791.60
2010,03,30,12,52,808.00
2010,03,30,12,53,832.50
2010,03,30,12,54,842.00
2010,03,30,12,55,857.50
2010,03,30,12,56,868.70
2010,03,30,12,57,870.00
2010,03,30,12,58,861.70
2010,03,30,12,59,835.00
2010,03,30,13,00,835.00
2010,03,30,13,01,835.00
2010,03,30,13,02,835.00
2010,03,30,13,03,835.00
2010,03,30,13,04,835.00
2010,03,30,13,05,763.80
2010,03,30,13,06,511.30
2010,03,30,13,07,464.00
2010,03,30,13,08,492.00
2010,03,30,13,09,548.70
2010,03,30,13,10,574.50
2010,03,30,13,11,556.00
2010,03,30,13,12,361.00
2010,03,30,13,13,343.70
2010,03,30,13,14,345.00
2010,03,30,13,15,483.00
2010,03,30,13,16,568.00
2010,03,30,13,17,487.90
2010,03,30,13,18,524.70
2010,03,30,13,19,552.50
2010,03,30,13,20,587.00
2010,03,30,13,21,617.00
2010,03,30,13,22,633.70
2010,03,30,13,23,661.00
2010,03,30,13,24,603.60
2010,03,30,13,25,687.90
2010,03,30,13,26,735.20
2010,03,30,13,27,763.80
2010,03,30,13,28,801.00
2010,03,30,13,29,869.40
2010,03,30,13,30,837.00
2010,03,30,13,31,819.00
2010,03,30,13,32,811.50
2010,03,30,13,33,740.00
2010,03,30,13,34,622.00
2010,03,30,13,35,421.10
2010,03,30,13,36,496.80
2010,03,30,13,37,587.10
2010,03,30,13,38,606.00
2010,03,30,13,39,731.40
2010,03,30,13,40,654.00
2010,03,30,13,41,383.70
2010,03,30,13,42,374.00
2010,03,30,13,43,371.20
2010,03,30,13,44,337.90
2010,03,30,13,45,299.90
2010,03,30,13,46,253.10
2010,03,30,13,47,209.00
2010,03,30,13,48,181.40
2010,03,30,13,49,160.40
2010,03,30,13,50,141.40
2010,03,30,13,51,124.70
2010,03,30,13,52,109.20
2010,03,30,13,53,92.50
2010,03,30,13,54,79.20
2010,03,30,13,55,70.30
2010,03,30,13,56,67.00
2010,03,30,13,57,68.30
2010,03,30,13,58,69.70
2010,03,30,13,59,71.70
2010,03,30,14,00,71.80
2010,03,30,14,01,69.80
2010,03,30,14,02,68.40
2010,03,30,14,03,68.30
2010,03,30,14,04,76.30
2010,03,30,14,05,89.80
2010,03,30,14,06,98.70
2010,03,30,14,07,105.30
2010,03,30,14,08,112.20
2010,03,30,14,09,119.30
2010,03,30,14,10,135.40
2010,03,30,14,11,165.10
2010,03,30,14,12,206.90
2010,03,30,14,13,257.40
2010,03,30,14,14,297.10
2010,03,30,14,15,318.90
2010,03,30,14,16,332.00
2010,03,30,14,17,336.90
2010,03,30,14,18,338.60
2010,03,30,14,19,339.00
2010,03,30,14,20,338.20
2010,03,30,14,21,339.90
2010,03,30,14,22,349.20
2010,03,30,14,23,358.30
2010,03,30,14,24,394.00
2010,03,30,14,25,459.40
2010,03,30,14,26,497.70
2010,03,30,14,27,557.40
2010,03,30,14,28,570.40
2010,03,30,14,29,535.90
2010,03,30,14,30,483.70
2010,03,30,14,31,432.90
2010,03,30,14,32,391.90
2010,03,30,14,33,378.70
2010,03,30,14,34,355.80
2010,03,30,14,35,346.50
2010,03,30,14,36,327.50
2010,03,30,14,37,318.60
2010,03,30,14,38,322.20
2010,03,30,14,39,326.70
2010,03,30,14,40,326.50
2010,03,30,14,41,338.20
2010,03,30,14,42,345.10
2010,03,30,14,43,357.80
2010,03,30,14,44,382.30
2010,03,30,14,45,386.50
2010,03,30,14,46,393.10
2010,03,30,14,47,408.80
2010,03,30,14,48,468.80
2010,03,30,14,49,573.00
2010,03,30,14,50,531.10
2010,03,30,14,51,377.30
2010,03,30,14,52,407.20
2010,03,30,14,53,447.80
2010,03,30,14,54,407.20
2010,03,30,14,55,316.10
2010,03,30,14,56,291.70
2010,03,30,14,57,278.50
2010,03,30,14,58,264.00
2010,03,30,14,59,266.80
2010,03,30,15,00,267.00
2010,03,30,15,01,252.20
2010,03,30,15,02,237.30
2010,03,30,15,03,251.50
2010,03,30,15,04,265.80
2010,03,30,15,05,306.20
2010,03,30,15,06,403.50
2010,03,30,15,07,436.60
2010,03,30,15,08,458.30
2010,03,30,15,09,457.50
2010,03,30,15,10,419.40
2010,03,30,15,11,395.60
2010,03,30,15,12,406.30
2010,03,30,15,13,442.70
2010,03,30,15,14,478.00
2010,03,30,15,15,480.10
2010,03,30,15,16,466.20
2010,03,30,15,17,429.70
2010,03,30,15,18,370.50
2010,03,30,15,19,350.50
2010,03,30,15,20,345.50
2010,03,30,15,21,345.60
2010,03,30,15,22,350.90
2010,03,30,15,23,371.40
2010,03,30,15,24,411.50
2010,03,30,15,25,434.40
2010,03,30,15,26,440.80
2010,03,30,15,27,446.70
2010,03,30,15,28,426.00
2010,03,30,15,29,405.00
2010,03,30,15,30,393.70
2010,03,30,15,31,393.30
2010,03,30,15,32,383.60
2010,03,30,15,33,369.30
2010,03,30,15,34,375.90
2010,03,30,15,35,366.00
2010,03,30,15,36,401.70
2010,03,30,15,37,434.40
2010,03,30,15,38,408.10
2010,03,30,15,39,396.30
2010,03,30,15,40,373.20
2010,03,30,15,41,306.50
2010,03,30,15,42,301.30
2010,03,30,15,43,307.40
2010,03,30,15,44,282.10
2010,03,30,15,45,259.40
2010,03,30,15,46,240.70
2010,03,30,15,47,223.40
2010,03,30,15,48,205.30
2010,03,30,15,49,191.90
2010,03,30,15,50,177.60
2010,03,30,15,51,164.60
2010,03,30,15,52,152.50
2010,03,30,15,53,147.20
2010,03,30,15,54,142.90
2010,03,30,15,55,140.00
2010,03,30,15,56,137.70
2010,03,30,15,57,135.60
2010,03,30,15,58,134.20
2010,03,30,15,59,129.70
2010,03,30,16,00,126.20
2010,03,30,16,01,121.90
2010,03,30,16,02,119.00
2010,03,30,16,03,118.00
2010,03,30,16,04,120.20
2010,03,30,16,05,126.70
2010,03,30,16,06,135.30
2010,03,30,16,07,143.50
2010,03,30,16,08,152.90
2010,03,30,16,09,164.90
2010,03,30,16,10,176.70
2010,03,30,16,11,187.50
2010,03,30,16,12,194.00
2010,03,30,16,13,200.40
2010,03,30,16,14,209.00
2010,03,30,16,15,223.00
2010,03,30,16,16,236.00
2010,03,30,16,17,236.00
2010,03,30,16,18,236.00
2010,03,30,16,19,236.00
2010,03,30,16,20,236.00
2010,03,30,16,21,236.00
2010,03,30,16,22,326.30
2010,03,30,16,23,483.50
2010,03,30,16,24,520.40
2010,03,30,16,25,611.00
2010,03,30,16,26,653.20
2010,03,30,16,27,664.30
2010,03,30,16,28,671.00
2010,03,30,16,29,671.00
2010,03,30,16,30,661.00
2010,03,30,16,31,628.00
2010,03,30,16,32,602.20
2010,03,30,16,33,581.20
2010,03,30,16,34,568.60
2010,03,30,16,35,489.00
2010,03,30,16,36,400.30
2010,03,30,16,37,218.00
2010,03,30,16,38,204.80
2010,03,30,16,39,186.00
2010,03,30,16,40,173.00
2010,03,30,16,41,171.30
2010,03,30,16,42,172.20
2010,03,30,16,43,163.70
2010,03,30,16,44,154.70
2010,03,30,16,45,152.20
2010,03,30,16,46,155.10
2010,03,30,16,47,164.80
2010,03,30,16,48,173.60
2010,03,30,16,49,171.80
2010,03,30,16,50,172.10
2010,03,30,16,51,178.50
2010,03,30,16,52,184.80
2010,03,30,16,53,183.80
2010,03,30,16,54,181.30
2010,03,30,16,55,178.00
2010,03,30,16,56,178.00
2010,03,30,16,57,179.10
2010,03,30,16,58,185.30
2010,03,30,16,59,196.90
2010,03,30,17,00,205.70
2010,03,30,17,01,208.60
2010,03,30,17,02,207.10
2010,03,30,17,03,206.80
2010,03,30,17,04,206.00
2010,03,30,17,05,206.50
2010,03,30,17,06,207.00
2010,03,30,17,07,206.30
2010,03,30,17,08,200.10
2010,03,30,17,09,193.00
2010,03,30,17,10,190.00
2010,03,30,17,11,190.70
2010,03,30,17,12,192.00
2010,03,30,17,13,192.00
2010,03,30,17,14,192.00
2010,03,30,17,15,188.60
2010,03,30,17,16,182.80